Flag for U.S.A. Weather past 2 weeks in Montgomery, Alabama, U.S.A.

Now
85 °F

Scattered clouds.


Feels Like: 90 °F
Forecast: 69 / 83 °F
Wind: 7 mph from North

Location: Maxwell Air Force Base / Montgomery

Current Time: Aug 30, 2015 at 4:07:44 PM

Latest Report: Aug 30, 2015 at 2:58 PM


Visibility: 10 mi

Pressure: 30.03 "Hg

Humidity: 61%

Dew point: 70 °F

Location of MontgomeryLocation

Historic Weather in Montgomery — Graph

°F

Montgomery temperature yesterday

Maximum temperature yesterday: 83 °F (at 11:58 AM)
Minimum temperature yesterday: 72 °F (at 3:03 PM)
Average temperature yesterday: 76 °F

Past Weeks' High & Low Weather Summary

 TemperatureHumidityPressure
High93 °F (Aug 22, 2:58 PM)100% (Aug 16, 10:01 PM)30.14 "Hg (Aug 16, 10:01 PM)
Low59 °F (Aug 26, 5:58 AM)34% (Aug 15, 2:58 PM)29.90 "Hg (Aug 18, 3:58 PM)
Average79 °F78%30.01 "Hg
* Reported Aug 15 1:58 PM — Aug 30 1:58 PM, Montgomery, Weather by CustomWeather, © 2015

Note: Actual official high and low records may vary slightly from our data, if they occured in-between our weather recording intervals... More about our weather records

Advertising

Montgomery weather history for previous 24 hours

 ConditionsComfort  
Time TempWeatherWind HumidityBarometerVisibility
1:58 PM
Sun, Aug 30
84 °FSunny.5 mph60%30.04 "Hg10 mi
12:58 PM83 °FPartly sunny.5 mph64%30.07 "Hg10 mi
11:58 AM82 °FBroken clouds.6 mph67%30.08 "Hg10 mi
10:58 AM79 °FMostly cloudy.2 mph76%30.09 "Hg10 mi
9:58 AM77 °FPartly sunny.1 mph79%30.09 "Hg10 mi
9:03 AM73 °FMore clouds than sun.2 mph94%30.08 "Hg10 mi
8:03 AM73 °FMore clouds than sun.2 mph89%30.07 "Hg10 mi
6:58 AM72 °FOvercast.No wind95%30.05 "Hg10 mi
5:58 AM72 °FMostly cloudy.1 mph95%30.04 "Hg10 mi
5:03 AM72 °FPartly cloudy.3 mph94%30.04 "Hg10 mi
4:03 AM72 °FMostly cloudy.2 mph94%30.04 "Hg10 mi
3:58 AM72 °FOvercast.1 mph96%30.04 "Hg10 mi
2:58 AM72 °FMostly cloudy.No wind94%30.04 "Hg10 mi
1:58 AM72 °FRain. Fog.5 mph92%30.05 "Hg5 mi
12:58 AM72 °FPassing clouds.1 mph90%30.06 "Hg10 mi
11:58 PM
Sat, Aug 29
72 °FPassing clouds.6 mph93%30.07 "Hg10 mi
10:58 PM72 °FClear.7 mph91%30.07 "Hg10 mi
9:58 PM74 °FPassing clouds.7 mph87%30.08 "Hg10 mi
8:58 PM74 °FPassing clouds.3 mph93%30.09 "Hg10 mi
7:58 PM73 °FOvercast.2 mph93%30.09 "Hg10 mi
6:58 PM74 °FPartly sunny.2 mph91%30.07 "Hg10 mi
5:58 PM74 °FPartly sunny.5 mph91%30.07 "Hg10 mi
4:58 PM74 °FPartly sunny.5 mph90%30.07 "Hg10 mi
Weather by CustomWeather, © 2015

See weather overviewHow to use our weather pages